EW7507 Weather Reports


Display with metric or nautical units.
time (UTC)temp
F
wind
direction
speed
MPH
gust
MPH
rain 1hr
in
rain 24hr
in
rain mn
in
humidity
%
barometer
mb
20260904034510 60 310 0.0 1.0 0.00 0.00 0.00 48 968.1
20260904034011 60 310 0.0 0.0 0.00 0.00 0.00 48 968.2
20260904033516 61 310 0.0 1.0 0.00 0.00 0.00 48 968.3
20260904033508 61 310 0.0 0.0 0.00 0.00 0.00 47 968.3
20260904033133 61 309 0.0 2.0 0.00 0.00 0.00 48 968.0
20260904032009 61 309 0.0 3.0 0.00 0.00 0.00 48 968.1
20260904031515 61 286 1.0 5.0 0.00 0.00 0.00 47 968.1
20260904031507 61 310 0.0 5.0 0.00 0.00 0.00 48 968.0
20260904030509 62 274 0.0 5.0 0.00 0.00 0.00 47 968.1
20260904030017 62 207 0.0 1.0 0.00 0.00 0.00 47 968.3
20260904025632 62 204 0.0 1.0 0.00 0.00 0.00 46 968.2
20260904025135 62 238 0.0 1.0 0.00 0.00 0.00 47 968.2
20260904024015 63 255 0.0 4.0 0.00 0.00 0.00 47 968.0
20260904024007 63 233 0.0 2.0 0.00 0.00 0.00 48 968.1
20260904023017 64 255 0.0 7.0 0.00 0.00 0.00 47 967.8
20260904023009 64 257 1.0 4.0 0.00 0.00 0.00 47 967.9
20260904022008 64 258 0.0 7.0 0.00 0.00 0.00 47 967.8
20260904021508 64 195 0.0 7.0 0.00 0.00 0.00 47 967.7
20260904021014 64 168 0.0 5.0 0.00 0.00 0.00 48 967.5
20260904021007 64 254 1.0 5.0 0.00 0.00 0.00 47 967.5
20260904020008 64 189 0.0 5.0 0.00 0.00 0.00 48 967.5
20260904015506 64 189 1.0 5.0 0.00 0.00 0.00 48 967.5
20260904015008 64 196 0.0 1.0 0.00 0.00 0.00 48 967.5
20260904014506 65 247 0.0 1.0 0.00 0.00 0.00 48 967.6
20260904014008 65 258 0.0 0.0 0.00 0.00 0.00 48 967.5
20260904013505 65 258 0.0 0.0 0.00 0.00 0.00 48 967.6
20260904013007 65 258 0.0 3.0 0.00 0.00 0.00 47 967.7
20260904012505 65 259 0.0 6.0 0.00 0.00 0.00 46 967.5
20260904012006 65 243 2.0 6.0 0.00 0.00 0.00 45 967.5
20260904011504 66 195 0.0 5.0 0.00 0.00 0.00 45 967.5
20260904011007 66 199 0.0 7.0 0.00 0.00 0.00 44 967.4
20260904010505 66 209 2.0 7.0 0.00 0.00 0.00 44 967.5
20260904010008 66 188 2.0 10.0 0.00 0.00 0.00 44 967.5
20260904005506 66 195 2.0 10.0 0.00 0.00 0.00 44 967.5
20260904005006 66 166 1.0 5.0 0.00 0.00 0.00 44 967.5
20260904004504 66 231 0.0 12.0 0.00 0.00 0.00 44 967.5
20260904004005 66 247 3.0 15.0 0.00 0.00 0.00 44 967.4
20260904003504 67 259 3.0 15.0 0.00 0.00 0.00 44 967.4
20260904003005 67 210 2.0 15.0 0.00 0.00 0.00 44 967.4
20260904002510 67 231 3.0 11.0 0.00 0.00 0.00 43 967.4
20260904002503 67 258 3.0 15.0 0.00 0.00 0.00 43 967.4
20260904001504 67 248 3.0 13.0 0.00 0.00 0.00 42 967.2
20260904001005 67 254 0.0 13.0 0.00 0.00 0.00 42 967.2
20260904000511 68 268 2.0 13.0 0.00 0.00 0.00 41 967.1
20260904000504 68 278 4.0 13.0 0.00 0.00 0.00 42 967.2
20260903235502 68 241 2.0 13.0 0.00 0.00 0.00 41 967.0
20260903235012 69 264 4.0 15.0 0.00 0.00 0.00 41 967.0
20260903235004 69 250 3.0 13.0 0.00 0.00 0.00 41 967.0
20260903234005 69 295 6.0 16.0 0.00 0.00 0.00 42 967.0
20260903233503 68 248 5.0 16.0 0.00 0.00 0.00 42 967.0
20260903233011 68 268 5.0 18.0 0.00 0.00 0.00 41 967.1
20260903233003 68 264 2.0 18.0 0.00 0.00 0.00 42 967.1
20260903232005 69 200 4.0 17.0 0.00 0.00 0.00 40 967.0
20260903231502 69 175 4.0 20.0 0.00 0.00 0.00 40 966.9
20260903231004 69 228 6.0 20.0 0.00 0.00 0.00 40 967.0
20260903230501 70 217 6.0 19.0 0.00 0.00 0.00 38 966.9
20260903230004 70 272 9.0 19.0 0.00 0.00 0.00 37 966.8
20260903225501 71 199 7.0 19.0 0.00 0.00 0.00 39 966.6
20260903225004 71 223 6.0 22.0 0.00 0.00 0.00 39 966.6
20260903224501 71 216 14.0 27.0 0.00 0.00 0.00 37 966.5
20260903224003 71 219 11.0 27.0 0.00 0.00 0.00 37 966.6
20260903223501 72 228 16.0 26.0 0.00 0.00 0.00 37 966.4
20260903223009 74 219 9.0 18.0 0.00 0.00 0.00 39 966.2
20260903223002 73 202 11.0 19.0 0.00 0.00 0.00 37 966.2
20260903222010 73 209 7.0 21.0 0.00 0.00 0.00 39 966.0
20260903222003 73 180 8.0 21.0 0.00 0.00 0.00 39 966.1
20260903221009 73 278 5.0 21.0 0.00 0.00 0.00 36 966.1
20260903221001 73 203 6.0 21.0 0.00 0.00 0.00 38 966.1
20260903220003 74 182 8.0 20.0 0.00 0.00 0.00 38 965.9
20260903215500 73 259 9.0 23.0 0.00 0.00 0.00 37 965.9
20260903215000 74 234 12.0 23.0 0.00 0.00 0.00 36 965.9
20260903214506 74 200 9.0 16.0 0.00 0.00 0.00 37 965.8
20260903214459 74 265 4.0 16.0 0.00 0.00 0.00 36 965.9
20260903213459 75 183 5.0 15.0 0.00 0.00 0.00 37 965.6
20260903213002 74 293 7.0 16.0 0.00 0.00 0.00 36 965.6
20260903212501 74 275 4.0 18.0 0.00 0.00 0.00 37 965.7
20260903212010 74 183 9.0 20.0 0.00 0.00 0.00 36 965.6
20260903212003 74 278 6.0 18.0 0.00 0.00 0.00 37 965.7
20260903210959 74 264 12.0 20.0 0.00 0.00 0.00 36 965.5
20260903210459 74 152 9.0 18.0 0.00 0.00 0.00 35 965.5
20260903205959 74 234 5.0 16.0 0.00 0.00 0.00 36 965.4
20260903205459 75 207 5.0 15.0 0.00 0.00 0.00 36 965.5
20260903204959 74 306 6.0 19.0 0.00 0.00 0.00 36 965.4
20260903204500 75 186 6.0 20.0 0.00 0.00 0.00 35 965.4
20260903203959 74 289 9.0 21.0 0.00 0.00 0.00 35 965.4
20260903203458 74 248 5.0 21.0 0.00 0.00 0.00 35 965.5
20260903202959 74 231 9.0 21.0 0.00 0.00 0.00 35 965.5
20260903202505 74 247 8.0 18.0 0.00 0.00 0.00 39 965.4
20260903202458 75 157 6.0 17.0 0.00 0.00 0.00 37 965.5
20260903201458 74 203 4.0 18.0 0.00 0.00 0.00 39 965.3
20260903200959 73 235 8.0 18.0 0.00 0.00 0.00 38 965.5
20260903200458 73 217 6.0 20.0 0.00 0.00 0.00 39 965.5
20260903195959 72 206 5.0 22.0 0.00 0.00 0.00 40 965.6
20260903195457 73 172 8.0 22.0 0.00 0.00 0.00 39 965.6
20260903195006 74 251 8.0 21.0 0.00 0.00 0.00 38 965.6
20260903194958 74 214 10.0 19.0 0.00 0.00 0.00 38 965.6
20260903193959 74 231 8.0 21.0 0.00 0.00 0.00 37 965.6
20260903193457 74 190 4.0 19.0 0.00 0.00 0.00 40 965.6
20260903192958 74 172 9.0 19.0 0.00 0.00 0.00 37 965.6
20260903192457 75 257 8.0 19.0 0.00 0.00 0.00 39 965.6
20260903191958 76 243 3.0 16.0 0.00 0.00 0.00 40 965.6
20260903191503 74 274 6.0 15.0 0.00 0.00 0.00 41 965.5
20260903191456 75 286 7.0 16.0 0.00 0.00 0.00 39 965.5
20260903190454 74 203 2.0 19.0 0.00 0.00 0.00 41 965.5
20260903185958 74 241 6.0 19.0 0.00 0.00 0.00 41 965.4
20260903185455 74 274 10.0 21.0 0.00 0.00 0.00 40 965.5
20260903184958 74 300 14.0 21.0 0.00 0.00 0.00 38 965.5
20260903184455 74 306 3.0 23.0 0.00 0.00 0.00 40 965.3
20260903184005 74 238 8.0 20.0 0.00 0.00 0.00 38 965.3
20260903183957 74 252 6.0 23.0 0.00 0.00 0.00 40 965.3
20260903182956 73 319 4.0 20.0 0.00 0.00 0.00 40 965.3
20260903182455 73 250 9.0 19.0 0.00 0.00 0.00 41 965.2
20260903181955 72 252 5.0 19.0 0.00 0.00 0.00 41 965.2
20260903181456 72 244 8.0 19.0 0.00 0.00 0.00 40 965.2
20260903181003 71 237 4.0 21.0 0.00 0.00 0.00 43 965.2
20260903180956 72 243 6.0 21.0 0.00 0.00 0.00 44 965.3
20260903175956 72 206 8.0 18.0 0.00 0.00 0.00 41 965.2
20260903175454 72 219 5.0 16.0 0.00 0.00 0.00 42 965.2
20260903174955 72 180 6.0 27.0 0.00 0.00 0.00 42 965.2
20260903174453 71 209 7.0 27.0 0.00 0.00 0.00 42 965.3
20260903174003 70 250 10.0 21.0 0.00 0.00 0.00 44 965.2
20260903173956 71 209 8.0 21.0 0.00 0.00 0.00 43 965.2
20260903172955 70 230 4.0 23.0 0.00 0.00 0.00 46 965.1
20260903172453 70 197 5.0 23.0 0.00 0.00 0.00 45 965.1
20260903171956 70 276 6.0 14.0 0.00 0.00 0.00 46 965.0
20260903171453 70 195 2.0 13.0 0.00 0.00 0.00 46 965.0
20260903170955 70 230 4.0 16.0 0.00 0.00 0.00 47 965.0
20260903170453 69 254 4.0 16.0 0.00 0.00 0.00 47 965.1
20260903165954 69 278 5.0 16.0 0.00 0.00 0.00 48 964.9
20260903165452 68 323 4.0 17.0 0.00 0.00 0.00 48 964.9
20260903164954 68 274 6.0 19.0 0.00 0.00 0.00 48 964.8
20260903164453 68 135 2.0 24.0 0.00 0.00 0.00 47 964.8
20260903164001 69 204 4.0 18.0 0.00 0.00 0.00 48 964.5
20260903163953 69 207 6.0 24.0 0.00 0.00 0.00 46 964.6
20260903162953 68 169 5.0 18.0 0.00 0.00 0.00 49 964.5
20260903162451 67 266 7.0 15.0 0.00 0.00 0.00 50 964.5
20260903162000 66 196 4.0 14.0 0.00 0.00 0.00 55 964.5
20260903161952 67 171 1.0 14.0 0.00 0.00 0.00 53 964.4
20260903160954 65 250 2.0 12.0 0.00 0.00 0.00 55 964.5
20260903160451 64 145 2.0 10.0 0.00 0.00 0.00 55 964.5
20260903155954 64 243 3.0 12.0 0.00 0.00 0.00 57 964.5
20260903155452 63 216 1.0 15.0 0.00 0.00 0.00 58 964.5
20260903154952 63 230 4.0 17.0 0.00 0.00 0.00 56 964.4
20260903154450 63 185 6.0 18.0 0.00 0.00 0.00 57 964.4
20260903153952 62 200 6.0 18.0 0.00 0.00 0.00 57 964.3
20260903153451 62 182 7.0 19.0 0.00 0.00 0.00 56 964.3
20260903152953 62 204 6.0 19.0 0.00 0.00 0.00 56 964.1
20260903152451 62 216 5.0 15.0 0.00 0.00 0.00 56 964.1
20260903151952 62 220 2.0 13.0 0.00 0.00 0.00 56 964.1
20260903151451 62 212 6.0 13.0 0.00 0.00 0.00 55 963.9
20260903150958 62 228 6.0 17.0 0.00 0.00 0.00 55 963.9
20260903150951 62 178 3.0 17.0 0.00 0.00 0.00 55 963.9
20260903145951 62 165 5.0 16.0 0.00 0.00 0.00 55 963.7
20260903145449 62 278 4.0 14.0 0.00 0.00 0.00 55 963.8
20260903144952 62 173 2.0 14.0 0.00 0.00 0.00 56 963.9
20260903144451 61 203 4.0 13.0 0.00 0.00 0.00 57 964.0
20260903143952 61 248 1.0 13.0 0.00 0.00 0.00 58 963.8
20260903143456 60 251 3.0 13.0 0.00 0.00 0.00 57 963.8
20260903143449 60 219 2.0 13.0 0.00 0.00 0.00 57 963.8
20260903142449 60 186 3.0 13.0 0.00 0.00 0.00 58 963.9
20260903141951 59 209 2.0 13.0 0.00 0.00 0.00 58 963.9
20260903141449 59 152 5.0 12.0 0.00 0.00 0.00 59 963.9
20260903140950 58 209 2.0 11.0 0.00 0.00 0.00 60 963.8
20260903140457 58 268 2.0 16.0 0.00 0.00 0.00 59 963.7
20260903140449 58 226 3.0 16.0 0.00 0.00 0.00 60 963.7
20260903135449 58 217 5.0 16.0 0.00 0.00 0.00 59 963.7
20260903134949 58 227 4.0 11.0 0.00 0.00 0.00 60 963.6
20260903134448 58 251 1.0 11.0 0.00 0.00 0.00 60 963.5
20260903133949 58 233 2.0 12.0 0.00 0.00 0.00 60 963.6
20260903133617 58 237 2.0 9.0 0.00 0.00 0.00 60 963.5
20260903133455 58 224 1.0 9.0 0.00 0.00 0.00 60 963.6
20260903133447 58 216 2.0 12.0 0.00 0.00 0.00 60 963.6
20260903131950 58 189 1.0 11.0 0.00 0.00 0.00 60 963.5
20260903131449 58 196 4.0 11.0 0.00 0.00 0.00 59 963.5
20260903130949 58 176 2.0 9.0 0.00 0.00 0.00 60 963.5
20260903130446 59 162 2.0 9.0 0.00 0.00 0.00 60 963.3
20260903125956 59 217 2.0 12.0 0.00 0.00 0.00 59 963.3
20260903125948 59 179 4.0 11.0 0.00 0.00 0.00 59 963.4
20260903124955 59 213 3.0 13.0 0.00 0.00 0.00 59 963.3
20260903124947 59 199 2.0 12.0 0.00 0.00 0.00 59 963.3
20260903123954 59 200 1.0 11.0 0.00 0.00 0.00 60 963.1
20260903123947 58 230 1.0 13.0 0.00 0.00 0.00 60 963.2
20260903122947 59 241 2.0 11.0 0.00 0.00 0.00 60 963.0
20260903122451 59 220 1.0 10.0 0.00 0.00 0.00 59 963.3
20260903122445 59 241 1.0 10.0 0.00 0.00 0.00 60 963.0
20260903122111 59 240 2.0 13.0 0.00 0.00 0.00 59 963.2
20260903121611 60 213 5.0 13.0 0.00 0.00 0.00 58 963.3
20260903120445 60 238 3.0 12.0 0.00 0.00 0.00 57 963.2
20260903115955 60 203 3.0 14.0 0.00 0.00 0.00 56 963.4
20260903115948 60 171 3.0 14.0 0.00 0.00 0.00 56 963.3
20260903114948 60 172 2.0 13.0 0.00 0.00 0.00 56 963.4
20260903114453 60 228 3.0 19.0 0.00 0.00 0.00 56 963.2
20260903114446 60 196 3.0 19.0 0.00 0.00 0.00 56 963.2
20260903113445 60 220 2.0 18.0 0.00 0.00 0.00 55 963.2
20260903112946 60 248 6.0 18.0 0.00 0.00 0.00 55 963.1
20260903112445 60 234 3.0 14.0 0.00 0.00 0.00 55 963.1
20260903111946 60 283 4.0 20.0 0.00 0.00 0.00 55 963.1
20260903111446 60 235 5.0 20.0 0.00 0.00 0.00 55 963.1
20260903110947 60 250 3.0 15.0 0.00 0.00 0.00 55 963.1
20260903110445 60 230 1.0 17.0 0.00 0.00 0.00 55 963.0
20260903105945 60 262 3.0 17.0 0.00 0.00 0.00 55 962.9
20260903105450 60 261 6.0 17.0 0.00 0.00 0.00 55 962.7
20260903105443 60 244 5.0 17.0 0.00 0.00 0.00 55 962.7
20260903104443 60 274 3.0 21.0 0.00 0.00 0.00 56 962.8
20260903103945 60 213 5.0 21.0 0.00 0.00 0.00 56 962.8
20260903103443 60 257 5.0 18.0 0.00 0.00 0.00 56 962.7
20260903102945 60 264 9.0 18.0 0.00 0.00 0.00 56 962.8
20260903102442 60 254 3.0 17.0 0.00 0.00 0.00 56 962.8
20260903101944 60 320 7.0 20.0 0.00 0.00 0.00 56 962.8
20260903101443 60 278 6.0 20.0 0.00 0.00 0.00 55 962.7
20260903100944 60 219 2.0 20.0 0.00 0.00 0.00 55 962.7
20260903100441 60 196 6.0 20.0 0.00 0.00 0.00 55 962.7
20260903095944 61 241 5.0 21.0 0.00 0.00 0.00 54 962.5
20260903095443 61 252 5.0 21.0 0.00 0.00 0.00 54 962.5
20260903094944 61 245 5.0 24.0 0.00 0.00 0.00 54 962.6
20260903094441 61 199 10.0 24.0 0.00 0.00 0.00 54 962.6
20260903093942 61 224 5.0 18.0 0.00 0.00 0.00 55 962.6
20260903093441 61 207 4.0 18.0 0.00 0.00 0.00 54 962.7
20260903092943 60 247 7.0 20.0 0.00 0.00 0.00 55 962.6
20260903092442 61 258 6.0 20.0 0.00 0.00 0.00 55 962.6
20260903091944 61 209 6.0 20.0 0.00 0.00 0.00 54 962.6
20260903091442 61 285 6.0 20.0 0.00 0.00 0.00 54 962.4
20260903090944 61 169 4.0 20.0 0.00 0.00 0.00 54 962.4
20260903090440 60 271 7.0 20.0 0.00 0.00 0.00 55 962.4
20260903085942 60 214 3.0 13.0 0.00 0.00 0.00 57 962.2
20260903085440 60 197 2.0 10.0 0.00 0.00 0.00 58 962.4
20260903084942 60 182 3.0 17.0 0.00 0.00 0.00 59 962.3
20260903084440 60 207 2.0 17.0 0.00 0.00 0.00 59 962.4
20260903083950 60 269 2.0 12.0 0.00 0.00 0.00 61 962.4
20260903083942 60 161 1.0 14.0 0.00 0.00 0.00 60 962.4
20260903082942 60 200 1.0 12.0 0.00 0.00 0.00 61 962.3
20260903082439 60 234 2.0 10.0 0.00 0.00 0.00 60 962.5
20260903081941 60 168 2.0 11.0 0.00 0.00 0.00 60 962.4
20260903081447 60 165 5.0 18.0 0.00 0.00 0.00 60 962.4
20260903081439 60 241 2.0 16.0 0.00 0.00 0.00 60 962.5
20260903081102 60 173 6.0 18.0 0.00 0.00 0.00 60 962.4
20260903075942 60 157 6.0 17.0 0.00 0.00 0.00 62 962.4
20260903075440 59 193 5.0 15.0 0.00 0.00 0.00 62 962.3
20260903074942 59 200 5.0 16.0 0.00 0.00 0.00 63 962.4
20260903074439 59 200 7.0 16.0 0.00 0.00 0.00 64 962.4
20260903073939 59 169 3.0 13.0 0.00 0.00 0.00 64 962.3
20260903073439 60 212 4.0 18.0 0.00 0.00 0.00 64 962.4
20260903072940 60 212 5.0 18.0 0.00 0.00 0.00 63 962.4
20260903072439 60 182 4.0 14.0 0.00 0.00 0.00 63 962.3
20260903071940 60 248 4.0 12.0 0.00 0.00 0.00 64 962.3
20260903071440 60 214 3.0 11.0 0.00 0.00 0.00 64 962.2
20260903070939 60 188 2.0 18.0 0.00 0.00 0.00 65 961.9
20260903070438 59 226 5.0 18.0 0.00 0.00 0.00 66 962.2
20260903065939 59 178 4.0 15.0 0.00 0.00 0.00 67 961.9
20260903065437 59 214 1.0 11.0 0.00 0.00 0.00 68 961.8
20260903064939 59 217 2.0 11.0 0.00 0.00 0.00 68 961.8
20260903064437 59 281 1.0 10.0 0.00 0.00 0.00 69 961.7
20260903063938 59 216 2.0 10.0 0.00 0.00 0.00 69 961.7
20260903063437 59 233 1.0 6.0 0.00 0.00 0.00 70 961.7
20260903062947 59 244 1.0 10.0 0.00 0.00 0.00 70 961.7
20260903062940 59 278 0.0 10.0 0.00 0.00 0.00 70 961.7
20260903061947 59 183 1.0 7.0 0.00 0.00 0.00 70 961.7
20260903061938 59 206 1.0 5.0 0.00 0.00 0.00 70 961.7
20260903061602 59 252 2.0 11.0 0.00 0.00 0.00 71 961.8
20260903060436 59 268 1.0 11.0 0.00 0.00 0.00 72 961.7
20260903055937 59 331 2.0 13.0 0.00 0.00 0.00 73 961.8
20260903055436 59 243 7.0 13.0 0.00 0.00 0.00 73 961.7
20260903054937 59 216 2.0 12.0 0.00 0.00 0.00 73 961.7
20260903054437 59 209 1.0 14.0 0.00 0.00 0.00 74 961.7
20260903053937 59 221 3.0 14.0 0.00 0.00 0.00 74 961.7
20260903053436 59 224 1.0 17.0 0.00 0.00 0.00 73 961.6
20260903052944 59 172 6.0 15.0 0.00 0.00 0.00 74 961.7
20260903052937 59 248 6.0 17.0 0.00 0.00 0.00 73 961.6
20260903051937 59 217 4.0 17.0 0.00 0.00 0.00 75 961.9
20260903051435 59 212 2.0 18.0 0.00 0.00 0.00 75 961.9
20260903050937 59 248 6.0 20.0 0.00 0.00 0.00 75 962.0
20260903050435 59 245 6.0 20.0 0.00 0.00 0.00 76 962.0
20260903045936 59 248 7.0 24.0 0.00 0.00 0.00 76 962.0
20260903045434 59 161 10.0 24.0 0.00 0.00 0.00 76 962.2
20260903044943 59 275 9.0 21.0 0.00 0.00 0.00 76 962.3
20260903044435 59 216 4.0 20.0 0.00 0.00 0.00 76 962.3
20260903043936 59 190 5.0 18.0 0.00 0.00 0.00 76 962.3
20260903043435 59 251 6.0 18.0 0.00 0.00 0.00 75 962.4
20260903042935 59 258 10.0 20.0 0.00 0.00 0.00 76 962.4
20260903042433 59 220 6.0 20.0 0.00 0.00 0.00 77 962.5
20260903041935 59 204 7.0 19.0 0.00 0.00 0.00 77 962.6
20260903041434 59 248 5.0 22.0 0.00 0.00 0.00 78 962.7
20260903040935 59 243 6.0 22.0 0.00 0.00 0.00 78 962.8
20260903040433 60 169 6.0 15.0 0.00 0.00 0.00 78 962.7
20260903035935 60 216 4.0 14.0 0.00 0.00 0.00 78 962.9
20260903035441 60 213 6.0 18.0 0.00 0.00 0.00 78 963.1
20260903035433 60 216 3.0 18.0 0.00 0.00 0.00 78 963.0